�������l�o���
Date,Time,MP-1(��Sv/h),MP-2(��Sv/h),MP-3(��Sv/h),MP-4(��Sv/h),MP-5(��Sv/h),MP-6(��Sv/h),MP-7(��Sv/h),MP-8(��Sv/h),����,����(m/s),���J
2023/07/17,00:00,0.526,0.799,0.489,0.961,0.704,0.323,0.564,0.529,���k��,2.6,��
2023/07/17,00:10,0.525,0.798,0.488,0.961,0.705,0.323,0.564,0.530,���k��,0.8,��
2023/07/17,00:20,0.526,0.796,0.490,0.963,0.705,0.324,0.564,0.529,�k,1.1,��
2023/07/17,00:30,0.524,0.796,0.490,0.961,0.704,0.323,0.562,0.530,�k��,1.7,��
2023/07/17,00:40,0.524,0.797,0.487,0.961,0.706,0.322,0.564,0.529,�k�k��,2.0,��
2023/07/17,00:50,0.525,0.796,0.489,0.960,0.705,0.322,0.564,0.529,�k,2.6,��
2023/07/17,01:00,0.526,0.798,0.491,0.960,0.704,0.324,0.564,0.529,�k,3.3,��
2023/07/17,01:10,0.526,0.798,0.491,0.960,0.705,0.322,0.564,0.528,�k�k��,3.2,��
2023/07/17,01:20,0.526,0.799,0.489,0.961,0.706,0.325,0.563,0.530,�k�k��,2.9,��
2023/07/17,01:30,0.526,0.799,0.489,0.961,0.702,0.322,0.565,0.528,�k,4.1,��
2023/07/17,01:40,0.526,0.797,0.491,0.962,0.705,0.322,0.564,0.529,�k�k��,4.3,��
2023/07/17,01:50,0.525,0.798,0.488,0.963,0.705,0.323,0.563,0.529,�k�k��,4.1,��
2023/07/17,02:00,0.526,0.796,0.490,0.959,0.706,0.322,0.565,0.529,�k��,4.5,��
2023/07/17,02:10,0.526,0.797,0.490,0.961,0.705,0.322,0.565,0.528,���k��,4.8,��
2023/07/17,02:20,0.525,0.797,0.489,0.962,0.704,0.321,0.564,0.530,�k��,4.3,��
2023/07/17,02:30,0.524,0.797,0.487,0.961,0.703,0.322,0.563,0.530,�k��,5.8,��
2023/07/17,02:40,0.527,0.796,0.490,0.961,0.704,0.322,0.566,0.530,�k��,6.5,��
2023/07/17,02:50,0.526,0.799,0.490,0.961,0.706,0.323,0.565,0.528,�k�k��,6.3,��
2023/07/17,03:00,0.525,0.798,0.487,0.963,0.706,0.322,0.565,0.529,�k��,4.8,��
2023/07/17,03:10,0.525,0.797,0.490,0.962,0.705,0.323,0.564,0.529,�k�k��,6.2,��
2023/07/17,03:20,0.526,0.798,0.489,0.960,0.704,0.321,0.564,0.528,�k�k��,5.3,��
2023/07/17,03:30,0.525,0.800,0.489,0.963,0.706,0.323,0.565,0.529,�k��,5.9,��
2023/07/17,03:40,0.526,0.799,0.488,0.961,0.707,0.322,0.563,0.530,�k��,8.6,��
2023/07/17,03:50,0.526,0.798,0.490,0.961,0.704,0.323,0.565,0.530,�k��,7.9,��
2023/07/17,04:00,0.525,0.797,0.489,0.963,0.705,0.322,0.566,0.528,�k�k��,6.1,��
2023/07/17,04:10,0.526,0.796,0.491,0.963,0.705,0.322,0.564,0.530,�k��,6.5,��
2023/07/17,04:20,0.525,0.797,0.489,0.965,0.706,0.323,0.566,0.530,�k��,6.1,��
2023/07/17,04:30,0.526,0.799,0.490,0.962,0.705,0.324,0.566,0.530,�k�k��,4.9,��
2023/07/17,04:40,0.525,0.798,0.489,0.963,0.708,0.323,0.566,0.531,�k�k��,5.3,��
2023/07/17,04:50,0.526,0.797,0.489,0.964,0.703,0.322,0.565,0.528,�k�k��,4.4,��
2023/07/17,05:00,0.525,0.798,0.489,0.962,0.703,0.322,0.565,0.529,�k�k��,4.2,��
2023/07/17,05:10,0.525,0.799,0.488,0.964,0.706,0.323,0.566,0.528,�k�k��,3.5,��
2023/07/17,05:20,0.525,0.797,0.491,0.963,0.706,0.322,0.566,0.530,�k,2.2,��
2023/07/17,05:30,0.527,0.797,0.488,0.963,0.704,0.322,0.564,0.530,�k,2.0,��
2023/07/17,05:40,0.527,0.798,0.490,0.964,0.705,0.322,0.564,0.529,�k�k��,1.9,��
2023/07/17,05:50,0.523,0.796,0.488,0.963,0.705,0.323,0.564,0.530,�k�k��,3.0,��
2023/07/17,06:00,0.524,0.800,0.490,0.964,0.705,0.322,0.564,0.531,�k�k��,3.8,��
2023/07/17,06:10,0.524,0.798,0.488,0.962,0.705,0.323,0.565,0.529,�k�k��,3.4,��
2023/07/17,06:20,0.524,0.798,0.490,0.964,0.705,0.323,0.565,0.529,�k��,2.9,��
2023/07/17,06:30,0.526,0.799,0.489,0.963,0.704,0.322,0.566,0.529,�k��,2.3,��
2023/07/17,06:40,0.523,0.795,0.490,0.964,0.704,0.322,0.566,0.530,���k��,1.9,��
2023/07/17,06:50,0.524,0.797,0.490,0.963,0.705,0.322,0.564,0.530,���k��,2.0,��
2023/07/17,07:00,0.525,0.798,0.488,0.963,0.705,0.325,0.566,0.531,���쐼,1.5,��
2023/07/17,07:10,0.524,0.799,0.489,0.963,0.704,0.322,0.566,0.528,���k��,0.6,��
2023/07/17,07:20,0.524,0.798,0.490,0.963,0.704,0.321,0.566,0.530,�k��,2.6,��
2023/07/17,07:30,0.524,0.799,0.490,0.962,0.704,0.323,0.565,0.530,�k�k��,2.0,��
2023/07/17,07:40,0.525,0.797,0.489,0.963,0.703,0.321,0.565,0.531,�k�k��,1.7,��
2023/07/17,07:50,0.526,0.797,0.488,0.964,0.704,0.323,0.567,0.532,�k�k��,1.5,��
2023/07/17,08:00,0.526,0.796,0.489,0.963,0.702,0.322,0.566,0.530,�k��,2.5,��
2023/07/17,08:10,0.525,0.798,0.489,0.964,0.705,0.322,0.565,0.529,�k��,3.6,��
2023/07/17,08:20,0.527,0.799,0.491,0.964,0.705,0.322,0.566,0.530,���k��,3.3,��
2023/07/17,08:30,0.526,0.798,0.490,0.965,0.707,0.322,0.565,0.528,���k��,2.2,��
2023/07/17,08:40,0.526,0.798,0.491,0.965,0.708,0.323,0.566,0.530,�k��,2.6,��
2023/07/17,08:50,0.527,0.800,0.491,0.963,0.707,0.322,0.567,0.528,���k��,2.3,��
2023/07/17,09:00,0.526,0.799,0.491,0.967,0.708,0.323,0.567,0.530,��쓌,1.1,��
2023/07/17,09:10,0.527,0.800,0.491,0.966,0.708,0.323,0.566,0.529,���쓌,0.6,��
2023/07/17,09:20,0.527,0.803,0.491,0.965,0.708,0.324,0.565,0.529,���쓌,1.7,��
2023/07/17,09:30,0.527,0.803,0.491,0.966,0.709,0.324,0.569,0.529,���쓌,2.0,��
2023/07/17,09:40,0.528,0.803,0.494,0.966,0.711,0.323,0.567,0.528,�쓌,2.5,��
2023/07/17,09:50,0.528,0.803,0.490,0.967,0.710,0.323,0.566,0.529,�쓌,3.6,��
2023/07/17,10:00,0.527,0.803,0.490,0.967,0.709,0.323,0.567,0.529,�쓌,2.9,��
2023/07/17,10:10,0.530,0.803,0.490,0.968,0.708,0.324,0.565,0.530,�쓌,3.4,��
2023/07/17,10:20,0.529,0.806,0.492,0.968,0.710,0.322,0.564,0.530,�쓌,4.2,��
2023/07/17,10:30,0.530,0.803,0.490,0.967,0.709,0.323,0.566,0.530,�쓌,5.1,��
2023/07/17,10:40,0.528,0.804,0.491,0.966,0.709,0.324,0.564,0.529,�쓌,6.0,��
2023/07/17,10:50,0.527,0.784,0.490,0.966,0.710,0.324,0.564,0.532,�쓌,5.4,��
2023/07/17,11:00,0.529,0.797,0.491,0.967,0.710,0.324,0.566,0.532,��쓌,5.6,��
2023/07/17,11:10,0.520,0.802,0.493,0.967,0.709,0.324,0.564,0.531,��쓌,5.9,��
2023/07/17,11:20,0.528,0.803,0.490,0.966,0.711,0.324,0.564,0.533,��쓌,7.1,��
2023/07/17,11:30,0.528,0.801,0.493,0.964,0.709,0.324,0.568,0.533,��쓌,7.4,��
2023/07/17,11:40,0.526,0.802,0.491,0.965,0.711,0.324,0.564,0.533,��쓌,6.4,��
2023/07/17,11:50,0.526,0.803,0.492,0.965,0.714,0.325,0.567,0.523,��쓌,7.4,��
2023/07/17,12:00,0.526,0.803,0.492,0.967,0.714,0.325,0.565,0.525,��쓌,7.4,��
2023/07/17,12:10,0.527,0.805,0.493,0.965,0.713,0.324,0.564,0.526,��쓌,8.1,��
2023/07/17,12:20,0.527,0.804,0.492,0.966,0.714,0.324,0.567,0.526,��쓌,8.6,��
2023/07/17,12:30,0.528,0.805,0.490,0.968,0.714,0.324,0.565,0.525,��쓌,8.5,��
2023/07/17,12:40,0.528,0.804,0.493,0.968,0.716,0.324,0.566,0.526,��쓌,9.5,��
2023/07/17,12:50,0.528,0.805,0.492,0.967,0.713,0.323,0.567,0.526,��쓌,9.1,��
2023/07/17,13:00,0.528,0.804,0.493,0.967,0.713,0.323,0.567,0.528,��쓌,10.5,��
2023/07/17,13:10,0.529,0.806,0.492,0.969,0.714,0.325,0.569,0.529,��쓌,10.3,��
2023/07/17,13:20,0.529,0.805,0.494,0.970,0.715,0.327,0.567,0.528,��쓌,9.4,��
2023/07/17,13:30,0.531,0.805,0.493,0.967,0.713,0.325,0.568,0.528,��쓌,11.6,��
2023/07/17,13:40,0.530,0.805,0.493,0.967,0.715,0.324,0.569,0.529,��쓌,12.0,��
2023/07/17,13:50,0.530,0.805,0.494,0.969,0.717,0.324,0.567,0.527,��쓌,12.4,��
2023/07/17,14:00,0.527,0.805,0.493,0.969,0.716,0.323,0.567,0.528,��쓌,11.3,��
2023/07/17,14:10,0.527,0.806,0.494,0.971,0.715,0.325,0.567,0.528,��쓌,11.7,��
2023/07/17,14:20,0.529,0.805,0.493,0.970,0.716,0.323,0.569,0.530,��쓌,12.0,��
2023/07/17,14:30,0.527,0.804,0.494,0.968,0.715,0.325,0.569,0.529,��쓌,12.5,��
2023/07/17,14:40,0.528,0.805,0.494,0.969,0.717,0.325,0.568,0.530,��쓌,9.6,��
2023/07/17,14:50,0.529,0.806,0.494,0.969,0.715,0.324,0.569,0.530,��쓌,7.4,��
2023/07/17,15:00,0.528,0.807,0.494,0.969,0.717,0.325,0.568,0.530,��,8.4,��
2023/07/17,15:10,0.528,0.807,0.494,0.970,0.717,0.325,0.568,0.529,��,7.8,��
2023/07/17,15:20,0.529,0.808,0.493,0.970,0.718,0.324,0.569,0.531,��,7.6,��
2023/07/17,15:30,0.528,0.807,0.493,0.973,0.717,0.325,0.570,0.530,��쓌,7.8,��
2023/07/17,15:40,0.527,0.806,0.494,0.972,0.718,0.325,0.570,0.529,��쓌,6.6,��
2023/07/17,15:50,0.528,0.808,0.494,0.972,0.716,0.324,0.569,0.531,��쓌,6.6,��
2023/07/17,16:00,0.530,0.808,0.495,0.974,0.718,0.325,0.568,0.529,��쓌,4.9,��
2023/07/17,16:10,0.529,0.808,0.494,0.975,0.717,0.324,0.567,0.530,��쓌,3.9,��
2023/07/17,16:20,0.530,0.806,0.494,0.974,0.717,0.326,0.569,0.531,��,3.5,��
2023/07/17,16:30,0.529,0.807,0.495,0.971,0.717,0.325,0.568,0.530,��,2.8,��
2023/07/17,16:40,0.529,0.807,0.495,0.975,0.717,0.325,0.568,0.531,��,3.3,��
2023/07/17,16:50,0.529,0.808,0.493,0.973,0.716,0.324,0.568,0.530,��,3.8,��
2023/07/17,17:00,0.529,0.806,0.494,0.974,0.718,0.326,0.568,0.530,��,4.2,��
2023/07/17,17:10,0.529,0.807,0.494,0.976,0.717,0.325,0.569,0.529,��쐼,4.0,��
2023/07/17,17:20,0.528,0.807,0.496,0.974,0.717,0.326,0.571,0.530,��,4.3,��
2023/07/17,17:30,0.530,0.808,0.497,0.975,0.717,0.327,0.569,0.532,��쐼,3.0,��
2023/07/17,17:40,0.531,0.806,0.495,0.975,0.718,0.326,0.568,0.532,��쐼,3.3,��
2023/07/17,17:50,0.528,0.807,0.496,0.977,0.717,0.326,0.570,0.533,�쐼,1.9,��
2023/07/17,18:00,0.528,0.805,0.496,0.974,0.715,0.326,0.569,0.531,�k�k��,1.7,��
2023/07/17,18:10,0.528,0.806,0.497,0.977,0.716,0.327,0.567,0.531,-,CALM,��
2023/07/17,18:20,0.528,0.808,0.496,0.973,0.717,0.326,0.569,0.530,�k�k��,3.1,��
2023/07/17,18:30,0.530,0.809,0.494,0.974,0.715,0.325,0.568,0.532,�k�k��,3.1,��
2023/07/17,18:40,0.528,0.807,0.494,0.973,0.717,0.324,0.567,0.532,�k�k��,2.9,��
2023/07/17,18:50,0.529,0.808,0.494,0.974,0.716,0.325,0.567,0.531,�k��,2.5,��
2023/07/17,19:00,0.529,0.807,0.493,0.974,0.716,0.325,0.568,0.530,�k��,3.1,��
2023/07/17,19:10,0.529,0.806,0.494,0.974,0.716,0.324,0.567,0.531,�k��,3.3,��
2023/07/17,19:20,0.531,0.809,0.493,0.976,0.718,0.325,0.567,0.531,�k��,3.5,��
2023/07/17,19:30,0.529,0.808,0.494,0.973,0.719,0.325,0.568,0.532,�k��,3.8,��
2023/07/17,19:40,0.530,0.809,0.494,0.973,0.714,0.325,0.566,0.532,�k��,3.4,��
2023/07/17,19:50,0.530,0.809,0.494,0.974,0.716,0.324,0.568,0.532,�k�k��,3.3,��
2023/07/17,20:00,0.531,0.808,0.494,0.973,0.715,0.325,0.566,0.531,�k�k��,3.7,��
2023/07/17,20:10,0.529,0.809,0.493,0.974,0.718,0.325,0.567,0.530,�k�k��,3.3,��
2023/07/17,20:20,0.532,0.808,0.494,0.973,0.716,0.325,0.566,0.531,�k�k��,3.2,��
2023/07/17,20:30,0.530,0.809,0.493,0.974,0.716,0.325,0.567,0.531,�k�k��,2.9,��
2023/07/17,20:40,0.531,0.807,0.492,0.973,0.716,0.326,0.567,0.531,�k�k��,2.5,��
2023/07/17,20:50,0.529,0.809,0.493,0.975,0.717,0.325,0.568,0.532,�k�k��,2.5,��
2023/07/17,21:00,0.531,0.807,0.495,0.974,0.719,0.325,0.566,0.530,���k��,1.4,��
2023/07/17,21:10,0.531,0.810,0.495,0.974,0.717,0.325,0.567,0.531,���k��,1.4,��
2023/07/17,21:20,0.533,0.810,0.493,0.972,0.717,0.325,0.568,0.532,���쐼,1.7,��
2023/07/17,21:30,0.532,0.810,0.493,0.974,0.717,0.325,0.568,0.531,���쐼,2.2,��
2023/07/17,21:40,0.532,0.811,0.493,0.973,0.717,0.325,0.566,0.530,���쐼,2.0,��
2023/07/17,21:50,0.529,0.809,0.494,0.973,0.719,0.327,0.567,0.531,���쐼,2.0,��
2023/07/17,22:00,0.530,0.807,0.493,0.973,0.718,0.326,0.568,0.531,��,1.5,��
2023/07/17,22:10,0.530,0.810,0.493,0.972,0.716,0.325,0.568,0.532,��,2.3,��
2023/07/17,22:20,0.530,0.807,0.492,0.972,0.716,0.327,0.568,0.531,���쐼,2.8,��
2023/07/17,22:30,0.531,0.807,0.493,0.974,0.717,0.325,0.568,0.531,�쐼,3.5,��
2023/07/17,22:40,0.531,0.808,0.493,0.973,0.718,0.326,0.568,0.531,�쐼,3.3,��
2023/07/17,22:50,0.530,0.807,0.494,0.975,0.719,0.325,0.568,0.530,���쐼,2.9,��
2023/07/17,23:00,0.533,0.809,0.495,0.976,0.716,0.324,0.567,0.531,���쐼,2.6,��
2023/07/17,23:10,0.530,0.809,0.494,0.974,0.718,0.325,0.568,0.531,���쐼,4.1,��
2023/07/17,23:20,0.531,0.809,0.493,0.975,0.717,0.326,0.567,0.533,���쐼,4.8,��
2023/07/17,23:30,0.529,0.807,0.494,0.975,0.716,0.325,0.568,0.531,���쐼,4.0,��
2023/07/17,23:40,0.532,0.808,0.494,0.974,0.717,0.324,0.568,0.532,���쐼,4.0,��
2023/07/17,23:50,0.531,0.808,0.493,0.972,0.717,0.325,0.568,0.533,�쐼,3.4,��
